Wind_Speed
13 12 12 13 14 14 15 14 14 14 14 15 15 15 15 16 16 17 17 18 18 19 18 18 18 19 19 19 19 19 20 20 19 20 21 21 21 22 22 23 23 24 24
14 14 14 14 14 15 16 16 16 16 16 17 17 17 18 18 18 19 19 19 20 20 20 20 20 20 20 21 21 21 22 21 21 22 23 23 24 24 25 25 25 25 25
15 16 16 16 16 17 18 18 18 17 18 19 19 19 20 20 20 20 20 21 21 22 22 22 22 22 22 22 22 23 23 23 24 24 24 25 25 26 26 26 26 26 26
17 18 18 19 19 19 19 20 20 21 21 21 21 21 22 22 22 22 22 23 24 24 24 23 23 24 24 24 24 25 25 25 25 26 26 26 26 26 27 26 26 26 26
20 20 21 22 22 22 22 22 23 23 23 23 23 24 24 24 24 24 25 25 25 26 25 25 25 26 26 26 26 26 27 27 27 27 27 27 27 26 26 26 26 26 27
22 23 24 25 24 25 24 24 24 25 25 26 26 26 26 26 26 26 26 27 27 27 26 27 27 28 28 27 27 27 28 28 28 28 28 28 27 28 27 27 27 26 26
25 25 26 26 26 26 26 26 26 26 27 27 28 28 28 28 28 28 29 29 29 29 29 29 28 29 29 29 29 28 28 28 29 29 29 29 29 29 28 28 28 27 27
26 27 27 27 27 27 27 27 27 28 28 29 29 29 30 30 31 30 29 29 29 30 30 30 29 29 29 29 29 28 28 29 30 30 30 29 28 28 28 28 28 28 28
27 27 28 28 28 28 28 29 29 29 29 30 31 31 30 30 31 31 30 30 30 30 31 31 31 30 29 29 29 29 29 29 30 30 30 29 29 29 28 28 28 28 28
28 28 29 29 29 29 29 29 29 29 30 30 31 31 31 31 31 31 31 31 30 30 30 30 31 31 31 30 30 30 30 30 30 30 31 30 30 29 29 29 29 29 29
28 29 29 29 30 30 30 30 30 30 29 30 30 31 31 32 31 32 31 31 31 30 30 30 30 31 31 31 31 31 31 31 31 31 30 30 30 30 30 30 30 30 29
30 30 30 30 31 31 30 30 31 31 30 30 30 31 31 32 32 31 31 31 31 31 31 31 31 31 31 31 31 31 30 30 30 30 30 30 30 30 30 31 30 30 29
30 31 31 31 31 31 31 32 31 31 31 31 31 31 31 32 32 31 31 31 31 31 31 31 32 32 31 31 31 30 30 30 30 30 30 30 29 29 29 29 29 29 29
31 31 32 32 31 31 32 32 31 32 31 31 31 31 31 31 31 31 32 32 32 32 31 31 31 31 31 30 30 29 30 29 29 28 28 28 28 28 29 29 28 28 28
32 32 32 31 31 31 30 31 32 32 32 31 31 31 31 30 30 31 31 31 31 32 31 31 31 30 30 29 28 28 28 27 28 28 27 26 27 27 28 28 28 28 28
33 33 32 31 31 31 30 30 30 30 31 31 31 31 31 31 31 30 30 30 30 30 30 29 29 28 28 27 28 28 28 27 27 27 26 26 26 26 26 26 27 27 27
33 32 32 31 30 30 30 30 30 29 30 31 31 31 31 30 30 30 30 30 29 29 29 28 28 27 27 27 27 27 28 28 27 27 27 26 25 25 25 25 26 26 26
31 31 32 31 31 30 30 30 30 29 30 30 30 30 30 30 30 30 29 29 29 28 28 28 28 28 27 27 27 27 28 27 27 26 26 25 25 24 24 24 24 25 25
30 31 32 31 31 31 30 30 30 30 29 29 29 29 30 30 29 29 29 28 28 28 28 28 28 28 28 28 28 28 28 28 27 26 25 25 25 24 24 24 24 24 24
31 31 32 31 31 31 30 30 31 30 30 30 30 30 30 30 30 29 29 28 28 27 27 27 27 28 28 28 28 27 27 26 26 25 25 25 24 24 24 24 24 24 24
31 31 31 31 30 30 30 31 31 31 31 31 30 30 30 30 29 29 29 29 28 27 27 26 27 27 27 28 28 26 26 26 26 25 25 24 24 24 24 24 24 24 24
31 31 30 30 30 30 31 31 31 31 31 31 31 31 30 29 28 28 28 28 27 27 26 26 26 26 26 27 27 26 26 25 25 25 24 24 24 25 25 25 25 25 25
31 32 32 31 30 31 31 32 31 31 31 31 32 31 30 29 29 28 28 27 27 26 26 26 25 25 25 26 26 26 25 25 25 25 25 26 26 26 26 26 25 25 26
31 31 31 30 30 31 31 31 32 31 31 30 30 30 30 29 28 28 27 26 26 27 27 26 25 25 25 25 25 25 25 25 25 25 26 27 27 27 27 27 26 26 26
30 30 31 31 31 32 32 32 31 31 30 30 30 29 28 27 26 26 25 25 25 26 26 26 26 25 25 25 25 25 25 25 26 26 26 26 27 27 27 27 26 26 26
30 30 30 30 30 30 30 30 29 29 28 28 27 27 26 26 26 26 26 25 25 26 26 25 25 25 26 26 26 25 25 26 27 27 27 27 27 27 27 27 27 27 27
Wind_Direction
309 307 309 308 311 313 313 305 306 308 309 313 313 312 311 309 308 308 308 308 307 306 305 304 304 304 300 298 296 296 294 293 293 293 293 293 293 294 294 294 294 292 290
304 303 304 304 306 306 307 301 299 302 303 303 305 307 308 308 307 306 306 305 305 304 303 302 302 303 302 299 296 295 294 293 293 292 292 292 292 292 293 293 293 292 291
303 303 303 302 303 303 303 300 295 296 299 300 301 302 304 305 305 305 305 304 304 304 301 301 300 299 301 301 298 295 293 293 293 293 292 292 291 290 290 291 291 292 292
301 302 301 301 301 301 302 300 298 295 296 297 298 300 301 301 301 301 301 302 301 301 300 300 300 300 300 299 298 296 294 293 294 294 292 291 291 290 290 291 290 290 290
300 299 298 299 300 299 300 297 296 295 295 295 295 296 298 298 296 296 297 299 299 298 297 298 300 301 301 300 299 297 294 294 294 293 291 290 290 290 291 290 290 289 289
297 296 295 296 297 298 298 295 294 293 293 293 293 293 293 294 294 293 293 294 296 296 295 296 298 300 300 300 299 297 295 294 293 292 291 290 290 289 289 289 289 289 288
297 296 295 295 296 297 296 294 293 292 292 291 291 291 291 291 291 291 291 292 294 296 297 298 298 298 299 298 297 295 295 294 293 293 291 290 289 288 288 288 288 287 287
297 297 297 296 295 296 296 295 294 292 290 290 290 290 291 291 290 290 291 292 293 294 296 297 298 299 298 297 296 295 295 295 294 294 293 291 290 289 288 287 287 287 287
296 297 297 297 296 296 295 295 295 293 290 290 290 289 290 290 290 291 292 292 295 296 296 296 296 296 297 296 296 295 296 296 295 295 293 292 292 291 290 289 288 287 287
295 295 295 296 295 296 297 296 295 294 292 291 292 291 290 289 290 291 290 291 293 294 295 296 296 296 296 296 296 296 295 296 295 295 293 292 292 291 289 289 289 287 286
294 294 295 295 294 294 294 294 294 295 295 294 293 292 290 289 289 290 291 292 291 293 295 295 295 295 296 296 295 296 296 296 294 294 294 291 291 290 290 289 289 288 286
293 294 295 295 293 293 293 294 294 295 295 294 294 294 292 291 291 290 291 292 292 292 292 293 293 294 294 296 297 297 297 296 295 293 294 293 291 290 290 288 288 288 287
295 294 294 294 294 293 293 294 294 295 295 294 294 294 293 293 293 291 291 292 293 291 290 291 293 294 294 295 296 297 296 297 297 295 294 294 292 291 290 289 289 288 288
298 297 296 295 293 294 295 294 295 295 295 295 295 295 295 295 295 295 292 292 292 291 291 292 292 292 293 294 296 296 297 297 297 296 295 295 293 293 291 290 289 289 290
296 297 296 296 296 296 295 295 294 294 294 295 295 295 296 297 298 297 295 294 293 291 290 291 293 293 294 294 297 297 297 297 298 299 298 297 296 295 292 289 288 289 291
295 295 296 296 295 295 294 296 296 295 293 294 295 295 295 296 297 296 296 295 294 292 292 292 293 294 294 295 296 296 297 299 300 299 298 297 295 294 292 291 290 291 291
296 296 297 297 296 296 297 297 297 296 295 296 295 294 294 295 296 296 295 295 295 294 292 292 293 294 294 294 295 295 296 297 298 297 297 298 296 294 292 291 291 292 292
297 297 297 296 296 295 296 296 297 297 296 295 294 295 296 297 297 296 296 296 296 296 295 293 293 293 293 294 294 295 295 295 295 296 295 296 296 296 294 292 291 291 292
296 298 298 297 297 296 296 297 297 298 298 297 295 294 295 295 296 297 297 297 297 297 296 295 294 293 293 293 293 294 295 295 295 296 296 295 296 297 295 293 292 293 292
296 297 298 297 296 295 295 296 297 297 297 298 298 295 296 296 296 297 298 297 296 295 295 295 294 294 293 292 292 293 293 293 293 293 294 295 295 295 296 296 295 295 293
296 297 297 295 294 294 296 296 297 296 296 297 298 297 296 295 295 296 296 296 295 295 294 295 295 295 295 294 293 292 292 291 293 293 293 294 295 295 297 298 297 297 297
296 297 297 297 294 295 296 296 296 296 296 296 296 296 295 294 295 296 297 297 296 296 297 297 297 296 295 296 294 292 291 291 292 293 294 294 295 295 296 297 296 295 296
295 296 297 298 297 296 296 295 295 296 295 295 295 294 293 294 295 296 297 298 297 297 298 298 297 297 297 296 294 292 289 288 289 290 292 293 294 294 295 295 295 295 296
294 295 295 296 297 297 297 297 297 296 295 294 294 293 293 293 294 294 294 296 297 296 297 298 297 296 297 298 296 294 291 290 290 290 291 292 292 293 292 292 291 292 294
294 294 294 294 295 297 297 297 297 296 296 295 294 293 293 292 293 295 294 295 296 296 297 297 296 296 296 295 294 294 293 292 292 292 292 292 293 293 292 291 291 291 291
294 295 295 295 296 297 298 299 298 297 297 296 296 294 292 291 292 294 294 294 294 295 296 296 297 296 296 296 295 294 292 293 292 292 292 292 292 293 293 293 291 290 290
Height
5883 5882 5880 5879 5877 5876 5875 5873 5871 5870 5869 5867 5865 5863 5862 5860 5858 5856 5854 5852 5850 5848 5846 5843 5841 5839 5837 5835 5833 5831 5830 5828 5826 5825 5822 5820 5818 5816 5814 5812 5810 5808 5806
5880 5878 5876 5875 5874 5873 5871 5869 5868 5867 5865 5863 5862 5860 5858 5856 5854 5852 5850 5848 5846 5843 5841 5839 5837 5834 5832 5830 5828 5826 5824 5822 5821 5819 5817 5815 5812 5810 5808 5806 5804 5801 5799
5877 5875 5873 5872 5870 5869 5867 5866 5864 5863 5861 5859 5858 5856 5854 5852 5850 5848 5846 5843 5841 5839 5836 5834 5832 5829 5827 5825 5822 5820 5818 5816 5814 5812 5810 5808 5805 5803 5801 5799 5796 5794 5792
5873 5871 5869 5868 5866 5865 5863 5862 5860 5858 5856 5855 5853 5851 5849 5847 5845 5842 5840 5838 5836 5833 5831 5829 5826 5824 5821 5819 5816 5814 5811 5809 5807 5805 5803 5801 5798 5796 5793 5792 5789 5787 5785
5868 5866 5865 5863 5861 5860 5858 5857 5855 5853 5851 5849 5847 5845 5843 5841 5839 5836 5834 5832 5830 5827 5825 5822 5820 5818 5815 5812 5809 5807 5804 5802 5800 5798 5795 5793 5790 5787 5786 5784 5782 5780 5778
5863 5861 5859 5857 5856 5854 5853 5851 5849 5847 5845 5843 5841 5839 5836 5834 5832 5829 5827 5825 5823 5820 5818 5815 5813 5810 5808 5805 5802 5799 5796 5794 5792 5790 5787 5785 5783 5780 5778 5776 5774 5772 5771
5857 5855 5853 5851 5850 5848 5846 5844 5842 5841 5839 5836 5834 5831 5829 5827 5824 5822 5820 5817 5815 5813 5811 5808 5806 5803 5800 5797 5794 5791 5789 5786 5784 5782 5779 5777 5775 5773 5770 5768 5766 5764 5762
5850 5848 5846 5844 5843 5841 5839 5837 5835 5833 5830 5828 5826 5823 5821 5819 5816 5814 5812 5810 5808 5805 5803 5801 5798 5795 5792 5789 5786 5783 5781 5778 5776 5773 5771 5769 5766 5764 5761 5760 5758 5756 5755
5843 5841 5839 5837 5835 5833 5831 5829 5826 5824 5822 5820 5817 5815 5813 5811 5808 5806 5804 5802 5799 5797 5795 5793 5790 5787 5784 5781 5778 5776 5773 5770 5767 5765 5762 5760 5758 5755 5753 5751 5749 5748 5746
5835 5833 5831 5829 5827 5825 5823 5821 5818 5816 5814 5811 5809 5806 5804 5802 5800 5798 5795 5794 5792 5789 5787 5784 5782 5779 5776 5773 5770 5767 5765 5762 5759 5756 5754 5752 5749 5747 5745 5743 5741 5739 5737
5828 5826 5824 5821 5819 5817 5815 5812 5810 5808 5806 5803 5801 5798 5796 5794 5791 5789 5787 5785 5783 5781 5778 5776 5773 5770 5768 5765 5762 5759 5756 5754 5751 5748 5746 5743 5741 5739 5736 5734 5732 5730 5728
5820 5818 5816 5813 5811 5809 5806 5804 5802 5799 5797 5795 5792 5790 5787 5785 5783 5781 5778 5776 5774 5772 5770 5767 5764 5762 5759 5756 5754 5751 5748 5745 5742 5740 5737 5735 5733 5730 5728 5725 5723 5720 5719
5812 5810 5807 5805 5802 5800 5797 5795 5792 5790 5788 5786 5784 5781 5779 5776 5774 5772 5769 5767 5765 5763 5760 5758 5756 5753 5751 5748 5745 5742 5739 5737 5734 5731 5729 5727 5724 5722 5719 5717 5714 5712 5711
5804 5802 5799 5797 5794 5791 5788 5785 5784 5782 5780 5777 5775 5773 5771 5768 5765 5763 5760 5758 5756 5753 5751 5749 5747 5744 5742 5740 5737 5734 5731 5728 5726 5723 5720 5718 5715 5713 5711 5709 5707 5705 5704
5796 5793 5791 5788 5786 5783 5780 5777 5775 5773 5771 5769 5766 5764 5762 5760 5757 5754 5751 5749 5746 5744 5742 5740 5738 5735 5733 5731 5729 5726 5724 5721 5718 5716 5713 5710 5707 5705 5703 5701 5699 5698 5696
5788 5785 5782 5780 5777 5774 5772 5769 5765 5763 5762 5760 5758 5756 5753 5751 5748 5745 5743 5740 5737 5735 5733 5731 5729 5727 5725 5723 5721 5718 5716 5713 5711 5708 5705 5703 5700 5698 5695 5693 5692 5690 5688
5779 5776 5773 5771 5768 5766 5763 5761 5759 5756 5753 5751 5749 5746 5744 5742 5739 5736 5734 5731 5729 5726 5724 5722 5721 5719 5717 5715 5713 5711 5708 5706 5703 5701 5698 5695 5693 5690 5688 5686 5684 5682 5680
5770 5767 5764 5762 5760 5758 5755 5753 5750 5748 5745 5742 5740 5738 5736 5733 5731 5728 5725 5723 5720 5718 5716 5714 5713 5711 5709 5707 5705 5703 5700 5698 5695 5693 5690 5688 5685 5683 5681 5679 5677 5675 5673
5761 5759 5756 5753 5750 5748 5746 5744 5742 5739 5736 5734 5732 5730 5727 5725 5722 5719 5716 5714 5712 5710 5708 5706 5704 5703 5701 5699 5697 5695 5692 5690 5688 5685 5683 5681 5679 5676 5674 5672 5670 5668 5666
5753 5750 5747 5744 5742 5739 5737 5735 5733 5730 5728 5726 5723 5721 5719 5716 5713 5711 5708 5706 5704 5702 5700 5698 5696 5695 5693 5691 5689 5687 5684 5682 5680 5678 5676 5674 5672 5669 5667 5665 5663 5661 5659
5744 5741 5738 5735 5733 5731 5728 5726 5723 5721 5719 5717 5715 5712 5710 5707 5705 5702 5700 5698 5696 5694 5692 5690 5688 5686 5684 5682 5680 5678 5676 5674 5673 5671 5669 5667 5665 5662 5660 5658 5656 5654 5652
5735 5732 5729 5726 5724 5722 5719 5716 5714 5711 5709 5707 5705 5703 5701 5699 5696 5694 5692 5690 5688 5686 5684 5682 5680 5678 5676 5674 5672 5670 5668 5667 5665 5663 5661 5659 5658 5656 5654 5652 5649 5647 5645
5726 5724 5721 5718 5715 5713 5710 5708 5705 5703 5700 5698 5696 5694 5692 5690 5689 5687 5685 5682 5680 5678 5676 5674 5673 5671 5669 5666 5665 5662 5661 5659 5658 5656 5654 5652 5650 5648 5646 5644 5642 5640 5638
5718 5715 5712 5709 5707 5704 5701 5699 5696 5694 5692 5690 5688 5685 5684 5682 5680 5678 5677 5674 5672 5671 5669 5666 5665 5663 5661 5659 5657 5655 5653 5652 5650 5648 5646 5644 5642 5640 5638 5637 5635 5633 5631
5709 5706 5703 5701 5698 5696 5693 5690 5687 5685 5683 5681 5679 5677 5675 5673 5672 5670 5668 5667 5665 5663 5661 5659 5657 5655 5653 5652 5649 5647 5646 5644 5642 5640 5638 5636 5634 5632 5630 5628 5627 5625 5623
5700 5697 5695 5692 5689 5687 5684 5681 5679 5676 5674 5672 5670 5668 5666 5665 5663 5662 5660 5659 5657 5656 5654 5652 5650 5648 5645 5643 5641 5639 5637 5636 5634 5631 5629 5628 5626 5624 5622 5620 5618 5617 5615